GW7157 Weather Reports


time (UTC)temp
F
wind
direction
speed
knots
gust
knots
rain 1hr
in
rain 24hr
in
rain mn
in
humidity
%
barometer
mb
20260505110905 43 169 1.7 2.6 0.00 0.00 0.00 75 1013.3
20260505110402 43 110 1.7 2.6 0.00 0.00 0.00 78 1013.1
20260505101833 43 152 3.5 6.1 0.00 0.00 0.00 84 1013.2
20260505101328 43 151 1.7 5.2 0.00 0.00 0.00 83 1013.2
20260505100824 43 138 1.7 6.1 0.00 0.00 0.00 83 1013.2
20260505100321 43 92 1.7 5.2 0.00 0.00 0.00 83 1013.0
20260505095816 43 158 4.3 6.1 0.00 0.00 0.00 82 1013.2
20260505095314 43 172 3.5 5.2 0.00 0.00 0.00 82 1012.8
20260505094810 44 130 0.9 5.2 0.00 0.00 0.00 81 1012.8
20260505094307 43 167 4.3 5.2 0.00 0.00 0.00 81 1013.0
20260505093802 43 195 0.9 1.7 0.00 0.00 0.00 82 1013.0
20260505093300 43 221 0.9 2.6 0.00 0.00 0.00 82 1013.0
20260505092757 43 176 2.6 2.6 0.00 0.00 0.00 82 1013.0
20260505092255 44 174 0.9 1.7 0.00 0.00 0.00 81 1013.1
20260505091752 44 174 1.7 2.6 0.00 0.00 0.00 81 1013.0
20260505091250 44 237 1.7 1.7 0.00 0.00 0.00 81 1013.1
20260505090748 44 237 1.7 2.6 0.00 0.00 0.00 81 1013.3
20260505090246 44 237 0.9 0.9 0.00 0.00 0.00 81 1013.3
20260505085743 44 239 0.9 1.7 0.00 0.00 0.00 81 1013.1
20260505085241 44 335 1.7 0.9 0.00 0.00 0.00 81 1013.3
20260505084738 44 337 0.0 0.0 0.00 0.00 0.00 82 1013.2
20260505084237 44 337 0.0 0.0 0.00 0.00 0.00 81 1013.4
20260505083733 44 337 0.0 0.0 0.00 0.00 0.00 81 1013.8
20260505083230 44 337 0.0 0.0 0.00 0.00 0.00 81 1013.8
20260505082726 44 337 0.0 0.0 0.00 0.00 0.00 80 1013.6
20260505082224 44 337 0.0 0.0 0.00 0.00 0.00 79 1013.8
20260505081719 44 337 0.0 0.9 0.00 0.00 0.00 79 1014.1
20260505081217 44 337 0.0 0.0 0.00 0.00 0.00 80 1014.1
20260505080714 44 337 0.0 0.0 0.00 0.00 0.00 81 1013.7
20260505080209 44 337 1.7 1.7 0.00 0.00 0.00 80 1014.2
20260505075705 44 338 0.0 0.9 0.00 0.00 0.00 80 1013.8
20260505075203 44 337 1.7 1.7 0.00 0.00 0.00 80 1013.9
20260505074700 44 334 0.0 1.7 0.00 0.00 0.00 80 1014.1
20260505074157 44 338 0.0 1.7 0.00 0.00 0.00 81 1014.3
20260505073655 44 338 0.0 0.9 0.00 0.00 0.00 80 1014.1
20260505073153 44 337 0.9 1.7 0.00 0.00 0.00 80 1014.4
20260505072648 44 344 1.7 2.6 0.00 0.00 0.00 80 1014.2
20260505072145 44 352 1.7 1.7 0.00 0.00 0.00 80 1014.3
20260505071640 44 351 2.6 2.6 0.00 0.00 0.00 79 1013.9
20260505071138 44 327 1.7 1.7 0.00 0.00 0.00 80 1013.9
20260505070635 44 327 0.9 1.7 0.00 0.00 0.00 80 1014.1
20260505070131 44 337 0.9 3.5 0.00 0.00 0.00 80 1014.2
20260505065627 44 346 0.9 0.9 0.00 0.00 0.00 81 1014.1
20260505065124 44 346 0.9 2.6 0.00 0.00 0.00 81 1014.2
20260505064621 44 328 1.7 5.2 0.00 0.00 0.00 80 1014.3
20260505064120 44 325 1.7 2.6 0.00 0.00 0.00 81 1014.3
20260505063617 44 312 0.9 0.9 0.00 0.00 0.00 83 1014.2
20260505063112 44 318 0.9 1.7 0.00 0.00 0.00 84 1014.4
20260505062609 44 314 0.9 0.9 0.00 0.00 0.00 85 1014.7
20260505062106 44 323 0.0 0.0 0.00 0.00 0.00 85 1014.5
20260505061603 44 322 0.0 0.9 0.00 0.00 0.00 83 1014.2
20260505061101 44 323 1.7 1.7 0.00 0.00 0.00 83 1014.4
20260505060559 44 320 0.9 5.2 0.00 0.00 0.00 82 1014.4
20260505060055 44 35 1.7 1.7 0.00 0.00 0.00 81 1014.3
20260505055550 45 36 1.7 1.7 0.00 0.00 0.00 81 1014.3
20260505055047 45 37 1.7 1.7 0.00 0.00 0.00 79 1014.3
20260505054545 46 349 3.5 2.6 0.00 0.00 0.00 75 1014.8
20260505054043 46 312 0.0 0.9 0.00 0.00 0.00 72 1014.4
20260505053539 47 323 0.9 0.9 0.00 0.00 0.00 69 1014.4
20260505053036 47 325 0.0 0.9 0.00 0.00 0.00 67 1014.4
20260505052533 47 335 0.9 1.7 0.00 0.00 0.00 66 1014.7
20260505052031 47 337 0.9 5.2 0.00 0.00 0.00 65 1014.5
20260505051527 47 340 3.5 7.0 0.00 0.00 0.00 65 1014.3
20260505051026 48 350 2.6 5.2 0.00 0.00 0.00 64 1014.4
20260505050523 48 1 3.5 6.1 0.00 0.00 0.00 64 1014.8
20260505041451 47 359 3.5 7.0 0.00 0.00 0.00 66 1013.7
20260505040948 47 9 4.3 7.8 0.00 0.00 0.00 66 1013.6
20260505040446 47 353 4.3 7.0 0.00 0.00 0.00 66 1013.6
20260505035942 47 358 2.6 3.5 0.00 0.00 0.00 65 1013.8
20260505035438 47 340 4.3 5.2 0.00 0.00 0.00 64 1013.6
20260505034936 47 353 2.6 5.2 0.00 0.00 0.00 63 1013.3
20260505034432 48 351 3.5 6.1 0.00 0.00 0.00 62 1013.2
20260505033929 48 338 4.3 6.1 0.00 0.00 0.00 62 1013.6
20260505033426 48 352 5.2 6.1 0.00 0.00 0.00 61 1013.4
20260505032924 48 351 5.2 6.1 0.00 0.00 0.00 61 1013.4
20260505032421 48 0 3.5 5.2 0.00 0.00 0.00 62 1013.8
20260505031917 48 344 5.2 6.1 0.00 0.00 0.00 62 1013.8
20260505031414 49 7 2.6 3.5 0.00 0.00 0.00 61 1013.4
20260505030912 49 326 5.2 7.0 0.00 0.00 0.00 59 1013.6
20260505030407 49 358 3.5 5.2 0.00 0.00 0.00 59 1013.1
20260505025903 49 336 1.7 5.2 0.00 0.00 0.00 58 1013.3
20260505025401 49 349 3.5 3.5 0.00 0.00 0.00 58 1013.3
20260505024859 50 336 2.6 2.6 0.00 0.00 0.00 57 1013.4
20260505024356 50 350 2.6 3.5 0.00 0.00 0.00 57 1013.7
20260505023853 50 352 3.5 5.2 0.00 0.00 0.00 56 1013.3
20260505023350 50 3 3.5 5.2 0.00 0.00 0.00 56 1013.4
20260505022847 50 357 3.5 5.2 0.00 0.00 0.00 56 1013.2
20260505022344 50 348 2.6 3.5 0.00 0.00 0.00 56 1013.4
20260505021842 49 349 0.9 1.7 0.00 0.00 0.00 57 1013.7
20260505021338 49 24 0.9 0.9 0.00 0.00 0.00 58 1013.3
20260505020834 50 15 0.9 2.6 0.00 0.00 0.00 57 1013.4
20260505020330 50 350 3.5 7.0 0.00 0.00 0.00 57 1013.6
20260505015827 50 359 5.2 7.0 0.00 0.00 0.00 56 1013.7
20260505015324 50 46 3.5 5.2 0.00 0.00 0.00 56 1013.6
20260505014821 50 359 3.5 7.8 0.00 0.00 0.00 55 1013.6
20260505014318 50 344 5.2 6.1 0.00 0.00 0.00 57 1013.1
20260505013814 50 353 3.5 5.2 0.00 0.00 0.00 56 1013.2
20260505013312 50 349 3.5 5.2 0.00 0.00 0.00 56 1013.1
20260505012810 51 353 2.6 3.5 0.00 0.00 0.00 57 1013.1
20260505012308 52 341 5.2 12.2 0.00 0.00 0.00 52 1013.0
20260505011803 53 351 7.8 8.7 0.00 0.00 0.00 48 1013.3
20260505011300 54 25 4.3 5.2 0.00 0.00 0.00 44 1013.0
20260505010756 54 328 5.2 7.0 0.00 0.00 0.00 42 1012.6
20260505010252 54 335 3.5 9.6 0.00 0.00 0.00 42 1012.6
20260505005748 54 344 2.6 8.7 0.00 0.00 0.00 42 1012.5
20260505005246 54 341 8.7 13.0 0.00 0.00 0.00 42 1012.5
20260505004743 55 9 3.5 7.8 0.00 0.00 0.00 41 1012.3
20260505004239 55 319 3.5 5.2 0.00 0.00 0.00 41 1012.3
20260505003736 55 308 4.3 9.6 0.00 0.00 0.00 40 1012.2
20260505003234 55 329 7.0 12.2 0.00 0.00 0.00 40 1012.1
20260505002730 56 356 4.3 7.0 0.00 0.00 0.00 39 1012.0
20260505002228 57 13 7.8 15.6 0.00 0.00 0.00 36 1011.7
20260505001725 58 4 7.8 13.0 0.00 0.00 0.00 34 1011.5
20260505001223 59 340 3.5 7.8 0.00 0.00 0.00 32 1011.2
20260505000719 59 13 2.6 2.6 0.00 0.00 0.00 33 1011.0
20260505000218 59 39 0.9 7.0 0.00 0.00 0.00 32 1010.7
20260504235714 59 350 3.5 8.7 0.00 0.00 0.00 32 1011.0
20260504235210 60 9 7.0 8.7 0.00 0.00 0.00 32 1011.1
20260504234707 61 37 6.1 7.8 0.00 0.00 0.00 31 1011.0
20260504234204 61 2 4.3 9.6 0.00 0.00 0.00 31 1010.5
20260504233700 61 352 6.1 9.6 0.00 0.00 0.00 31 1010.7
20260504233156 61 345 8.7 12.2 0.00 0.00 0.00 30 1010.9
20260504232654 61 33 2.6 5.2 0.00 0.00 0.00 32 1010.9
20260504232150 61 36 3.5 5.2 0.00 0.00 0.00 30 1011.0
20260504231647 61 32 2.6 5.2 0.00 0.00 0.00 32 1011.0
20260504231144 62 42 0.9 1.7 0.00 0.00 0.00 32 1010.9
20260504230640 61 67 0.9 3.5 0.00 0.00 0.00 32 1010.9
20260504230139 61 79 0.9 3.5 0.00 0.00 0.00 33 1010.6
20260504225637 61 66 0.9 6.1 0.00 0.00 0.00 32 1010.9
20260504225132 61 96 1.7 6.1 0.00 0.00 0.00 33 1010.5
20260504224630 61 55 5.2 7.0 0.00 0.00 0.00 32 1010.7
20260504224126 61 40 4.3 5.2 0.00 0.00 0.00 32 1010.6
20260504223623 61 79 3.5 5.2 0.00 0.00 0.00 32 1010.5
20260504223119 61 84 2.6 7.0 0.00 0.00 0.00 32 1010.6
20260504222616 62 117 5.2 9.6 0.00 0.00 0.00 29 1010.6
20260504222114 63 169 7.8 8.7 0.00 0.00 0.00 27 1010.9
20260504221610 64 70 3.5 7.0 0.00 0.00 0.00 27 1010.5
20260504221108 65 83 3.5 8.7 0.00 0.00 0.00 26 1010.3
20260504220603 64 152 5.2 6.1 0.00 0.00 0.00 25 1010.4
20260504215557 63 233 7.0 7.8 0.00 0.00 0.00 25 1010.5
20260504215055 63 219 4.3 7.8 0.00 0.00 0.00 26 1010.6
20260504214550 63 151 2.6 3.5 0.00 0.00 0.00 25 1010.6
20260504214047 62 96 0.0 5.2 0.00 0.00 0.00 25 1010.7
20260504213543 62 54 3.5 5.2 0.00 0.00 0.00 24 1010.5
20260504213041 63 331 7.8 12.2 0.00 0.00 0.00 25 1010.7
20260504212537 62 318 4.3 6.1 0.00 0.00 0.00 24 1010.9
20260504212034 63 336 4.3 8.7 0.00 0.00 0.00 24 1010.7
20260504211531 63 347 3.5 9.6 0.00 0.00 0.00 24 1010.5
20260504211028 63 331 4.3 11.3 0.00 0.00 0.00 24 1010.7
20260504210525 63 347 7.8 9.6 0.00 0.00 0.00 24 1010.5
20260504210022 63 320 5.2 7.8 0.00 0.00 0.00 24 1010.5
20260504205520 64 35 4.3 11.3 0.00 0.00 0.00 24 1010.4
20260504205017 65 335 7.0 11.3 0.00 0.00 0.00 23 1010.3
20260504204515 69 342 5.2 13.0 0.00 0.00 0.00 20 1010.6
20260504204014 69 30 0.0 0.9 0.00 0.00 0.00 20 1010.3
20260504203511 68 164 0.9 1.7 0.00 0.00 0.00 19 1010.5
20260504203009 69 44 1.7 6.1 0.00 0.00 0.00 20 1010.5
20260504202504 68 38 2.6 2.6 0.00 0.00 0.00 21 1010.7
20260504202001 67 265 1.7 3.5 0.00 0.00 0.00 21 1010.5
20260504201458 67 342 6.1 8.7 0.00 0.00 0.00 21 1010.6
20260504200956 66 334 6.1 8.7 0.00 0.00 0.00 21 1010.9
20260504200452 66 323 2.6 6.1 0.00 0.00 0.00 23 1011.0
20260504195949 64 294 4.3 6.1 0.00 0.00 0.00 23 1011.0
20260504195445 63 342 2.6 8.7 0.00 0.00 0.00 23 1011.4
20260504194942 63 228 2.6 8.7 0.00 0.00 0.00 25 1011.6
20260504194438 64 259 8.7 15.6 0.00 0.00 0.00 23 1011.5
20260504193934 64 357 13.9 16.5 0.00 0.00 0.00 22 1011.1
20260504193431 65 5 7.0 8.7 0.00 0.00 0.00 20 1011.2
20260504192930 66 242 5.2 8.7 0.00 0.00 0.00 19 1011.4
20260504192427 67 338 7.0 8.7 0.00 0.00 0.00 18 1011.0
20260504191926 68 328 1.7 2.6 0.00 0.00 0.00 19 1010.9
20260504191423 69 0 1.7 6.1 0.00 0.00 0.00 18 1010.9
20260504190918 69 232 7.0 9.6 0.00 0.00 0.00 16 1010.6
20260504190414 68 73 1.7 6.1 0.00 0.00 0.00 17 1010.6
20260504185911 69 169 5.2 9.6 0.00 0.00 0.00 15 1010.9
20260504185408 68 153 6.1 7.8 0.00 0.00 0.00 16 1011.0
20260504184904 69 180 7.8 9.6 0.00 0.00 0.00 15 1011.1
20260504184400 71 204 3.5 6.1 0.00 0.00 0.00 16 1011.4
20260504183856 69 177 0.9 3.5 0.00 0.00 0.00 17 1011.5
20260504183354 69 39 2.6 7.0 0.00 0.00 0.00 15 1011.5
20260504182851 69 127 1.7 11.3 0.00 0.00 0.00 15 1011.6
20260504182348 68 189 1.7 2.6 0.00 0.00 0.00 15 1012.0
20260504181845 69 265 2.6 7.0 0.00 0.00 0.00 15 1012.0
20260504181342 68 174 1.7 7.0 0.00 0.00 0.00 18 1011.9
20260504180841 67 60 0.9 3.5 0.00 0.00 0.00 17 1012.1
20260504180339 67 101 2.6 5.2 0.00 0.00 0.00 18 1012.0
20260504175837 66 84 1.7 3.5 0.00 0.00 0.00 19 1012.1
20260504175333 69 152 4.3 7.0 0.00 0.00 0.00 18 1012.3
20260504174832 67 131 2.6 6.1 0.00 0.00 0.00 20 1012.1
20260504174329 67 192 0.9 7.0 0.00 0.00 0.00 18 1012.3
20260504173826 68 228 2.6 9.6 0.00 0.00 0.00 19 1012.6
20260504173322 66 110 1.7 3.5 0.00 0.00 0.00 21 1012.7
20260504172820 63 179 3.5 7.8 0.00 0.00 0.00 22 1012.7
20260504172316 63 178 7.0 11.3 0.00 0.00 0.00 18 1013.2
20260504171812 62 282 5.2 11.3 0.00 0.00 0.00 23 1013.2
20260504171309 62 297 6.1 14.8 0.00 0.00 0.00 23 1013.2
20260504170806 62 246 7.0 9.6 0.00 0.00 0.00 23 1013.1
20260504170303 62 221 7.8 16.5 0.00 0.00 0.00 23 1013.3
20260504160222 61 237 11.3 18.2 0.00 0.00 0.00 28 1013.4
20260504151150 57 24 7.0 13.9 0.00 0.00 0.00 30 1013.4
20260504150647 57 345 5.2 7.8 0.00 0.00 0.00 30 1013.8
20260504150144 57 318 3.5 13.9 0.00 0.00 0.00 30 1013.4
20260504141113 58 310 4.3 13.0 0.00 0.00 0.00 29 1013.6
20260504140609 58 239 5.2 8.7 0.00 0.00 0.00 28 1013.3
20260504140105 58 353 5.2 8.7 0.00 0.00 0.00 28 1013.2
20260504130533 58 70 0.9 9.6 0.00 0.00 0.00 26 1013.4